Weather History for CYWG - January, 2014

Change the Weather History Date:

Sunday, January 26, 2014

  Actual Average Record
Temperature  
Mean Temperature -8 °F -  
Max Temperature 0 °F 9 °F 37 °F (2006)
Min Temperature -18 °F -3 °F -29 °F (1997)
Degree Days  
Heating Degree Days 73    
Moisture  
Dew Point -13 °F    
Average Humidity 76    
Maximum Humidity 85    
Minimum Humidity 64    
Precipitation  
Precipitation 0.00 in - - ()
Sea Level Pressure  
Sea Level Pressure 29.87 in    
Wind  
Wind Speed 14 mph ()    
Max Wind Speed 31 mph    
Max Gust Speed 39 mph    
Visibility 3.4 miles    
Events Snow    
Averages and records for this station are not official NWS values.
T = Trace of Precipitation, MM = Missing Value Source: Averaged Metar Reports

Daily Weather History Graph

Daily Weather History Graph

Search for Another Location

Airport or City:

Trip Planner

Search our weather history database for the weather conditions in past years. The results will help you decide how hot, cold, wet, or windy it might be!

Date:

Astronomy

Jan. 26, 2014 Rise Set
Actual Time 8:09 AM CST 5:13 PM CST
Civil Twilight 7:34 AM CST 5:49 PM CST
Nautical Twilight 6:55 AM CST 6:28 PM CST
Astronomical Twilight 6:17 AM CST 7:06 PM CST
Moon 3:50 AM CST (1/26) 1:00 PM CST (1/26)
Length of Visible Light 10h 14m
Length of Day
9h 03m
Waning Crescent, 23% of the Moon is Illuminated
Jan 26
Waning Crescent
Jan 30
New
Feb 6
First Quarter
Feb 14
Full
Feb 22
Last Quarter

Hourly Weather History & Observations

Time (CST) Temp. Windchill Dew Point Humidity Pressure Visibility Wind Dir Wind Speed Gust Speed Precip Events Conditions
12:00 AM -2.2 °F -14.2 °F -7.6 °F 78% 29.60 in 15.0 mi SSE 5.8 mph - N/A Snow Light Snow
1:00 AM -0.4 °F -10.4 °F -5.8 °F 78% 29.57 in 6.0 mi SSE 4.6 mph - N/A Snow Light Snow
2:00 AM -0.4 °F -12.0 °F -5.8 °F 78% 29.54 in 3.0 mi South 5.8 mph - N/A Snow Light Snow
2:33 AM -0.4 °F -12.0 °F -5.8 °F 78% 29.53 in 2.0 mi South 5.8 mph - N/A Snow Light Snow
3:00 AM -0.4 °F - -5.8 °F 78% 29.55 in 1.0 mi South 2.3 mph - N/A Snow Light Snow
3:20 AM -0.4 °F - -5.8 °F 78% 29.53 in 3.0 mi WSW 2.3 mph - N/A Snow Light Snow
4:00 AM -2.2 °F -14.2 °F -5.8 °F 85% 29.52 in 3.0 mi NW 5.8 mph - N/A Snow Light Snow
5:00 AM -2.2 °F -15.6 °F -5.8 °F 85% 29.52 in 3.0 mi North 6.9 mph - N/A Snow Light Snow
6:00 AM -4.0 °F -19.0 °F -7.6 °F 85% 29.54 in 6.0 mi North 8.1 mph - N/A Snow Light Snow
7:00 AM -4.0 °F -25.2 °F -9.4 °F 78% 29.57 in 5.0 mi NNW 16.1 mph - N/A Snow Light Snow
7:21 AM -2.2 °F -26.2 °F -7.6 °F 78% 29.57 in 1.0 mi North 23.0 mph 29.9 mph N/A Snow Light Snow
8:00 AM -4.0 °F -30.4 °F -7.6 °F 85% 29.59 in 1.0 mi North 27.6 mph - N/A Snow Light Snow
8:17 AM -4.0 °F -29.6 °F -9.4 °F 78% 29.60 in 0.5 mi North 25.3 mph 34.5 mph N/A Snow Light Snow
8:41 AM -4.0 °F -28.6 °F -9.4 °F 78% 29.63 in 2.0 mi North 23.0 mph 29.9 mph N/A Snow Blowing Snow
9:00 AM -4.0 °F -28.1 °F -9.4 °F 78% 29.65 in 0.5 mi North 21.9 mph 31.1 mph N/A Snow Blowing Snow
10:00 AM -4.0 °F -29.6 °F -9.4 °F 78% 29.71 in 0.5 mi North 25.3 mph 32.2 mph N/A Snow Light Snow
11:00 AM -4.0 °F -30.9 °F -11.2 °F 71% 29.79 in 0.5 mi North 28.8 mph 36.8 mph N/A Snow Light Snow
12:00 PM -4.0 °F -30.4 °F -11.2 °F 71% 29.86 in 0.8 mi North 27.6 mph - N/A Snow Light Snow
1:00 PM -4.0 °F -31.3 °F -11.2 °F 71% 29.91 in 0.5 mi NNW 29.9 mph 39.1 mph N/A Snow Light Snow
1:47 PM -5.8 °F -33.3 °F -13.0 °F 71% 29.96 in 0.8 mi North 28.8 mph 38.0 mph N/A Snow Blowing Snow
2:00 PM -7.6 °F -36.6 °F -13.0 °F 77% 29.97 in 0.5 mi NNW 31.1 mph 39.1 mph N/A Snow Blowing Snow
3:00 PM -7.6 °F -35.7 °F -14.8 °F 71% 30.04 in 0.5 mi NNW 28.8 mph 35.7 mph N/A Snow Blowing Snow
4:00 PM -9.4 °F -37.7 °F -16.6 °F 71% 30.09 in 1.5 mi NNW 27.6 mph - N/A Snow Blowing Snow
4:35 PM -11.2 °F -37.6 °F -16.6 °F 77% 30.13 in 5.0 mi NNW 21.9 mph 27.6 mph N/A Snow Blowing Snow
5:00 PM -11.2 °F -40.1 °F -16.6 °F 77% 30.15 in 3.0 mi NNW 27.6 mph - N/A Snow Blowing Snow
5:19 PM -11.2 °F -38.7 °F -16.6 °F 77% 30.17 in 0.8 mi NNW 24.2 mph 31.1 mph N/A Snow Blowing Snow
5:39 PM -13.0 °F -40.6 °F -18.4 °F 77% 30.19 in 1.5 mi NW 23.0 mph 31.1 mph N/A Snow Blowing Snow
6:00 PM -13.0 °F -41.6 °F -18.4 °F 77% 30.20 in 2.0 mi NW 25.3 mph 33.4 mph N/A Snow Blowing Snow
6:38 PM -14.8 °F -44.0 °F -20.2 °F 77% 30.23 in 5.0 mi NW 25.3 mph - N/A Snow Blowing Snow
7:00 PM -14.8 °F -43.5 °F -22.0 °F 70% 30.25 in 5.0 mi NNW 24.2 mph 33.4 mph N/A Snow Blowing Snow
8:00 PM -14.8 °F -42.9 °F -20.2 °F 77% 30.28 in 5.0 mi NNW 23.0 mph 28.8 mph N/A Snow Blowing Snow
9:00 PM -14.8 °F -42.9 °F -22.0 °F 70% 30.31 in 8.0 mi NNW 23.0 mph - N/A Snow Low Drifting Snow
10:00 PM -16.6 °F -43.5 °F -25.6 °F 64% 30.33 in 10.0 mi NNW 19.6 mph - N/A Snow Low Drifting Snow
11:00 PM -18.4 °F -46.5 °F -25.6 °F 70% 30.35 in 12.0 mi NNW 20.7 mph - N/A Snow Low Drifting Snow